| time (UTC) | temp C | wind direction | speed KPH | gust KPH | rain 1hr cm | rain 24hr cm | rain mn cm | humidity % | barometer mb |
| 20260503060145 | 1 | 265 | 0.0 | 0.0 | 0.00 | 0.00 | 0.00 | 87 | 1015.6 |
| 20260503054632 | 1 | 265 | 0.0 | 0.0 | 0.00 | 0.00 | 0.00 | 89 | 1015.8 |
| 20260503054129 | 1 | 265 | 0.0 | 0.0 | 0.00 | 0.00 | 0.00 | 90 | 1015.9 |
| 20260503053627 | 2 | 265 | 0.0 | 0.0 | 0.00 | 0.00 | 0.00 | 90 | 1015.8 |
| 20260503053126 | 1 | 265 | 0.0 | 0.0 | 0.00 | 0.00 | 0.00 | 89 | 1015.9 |
| 20260503052622 | 1 | 266 | 0.0 | 0.0 | 0.00 | 0.00 | 0.00 | 89 | 1015.9 |
| 20260503052118 | 1 | 266 | 0.0 | 0.0 | 0.00 | 0.00 | 0.00 | 88 | 1015.8 |
| 20260503051614 | 2 | 266 | 0.0 | 0.0 | 0.00 | 0.00 | 0.00 | 89 | 1016.1 |
| 20260503051112 | 2 | 266 | 0.0 | 0.0 | 0.00 | 0.00 | 0.00 | 89 | 1016.0 |
| 20260503050608 | 2 | 266 | 0.0 | 0.0 | 0.00 | 0.00 | 0.00 | 89 | 1016.0 |
| 20260503050105 | 2 | 266 | 0.0 | 0.0 | 0.00 | 0.00 | 0.00 | 89 | 1016.2 |
| 20260503045602 | 2 | 266 | 0.0 | 0.0 | 0.00 | 0.00 | 0.00 | 88 | 1016.2 |
| 20260503045059 | 2 | 266 | 0.0 | 0.0 | 0.00 | 0.00 | 0.00 | 88 | 1016.0 |
| 20260503044555 | 2 | 266 | 0.0 | 0.0 | 0.00 | 0.00 | 0.00 | 87 | 1016.2 |
| 20260503044053 | 2 | 266 | 0.0 | 0.0 | 0.00 | 0.00 | 0.00 | 86 | 1016.3 |
| 20260503043549 | 2 | 266 | 0.0 | 0.0 | 0.00 | 0.00 | 0.00 | 86 | 1016.1 |
| 20260503043046 | 2 | 266 | 0.0 | 0.0 | 0.00 | 0.00 | 0.00 | 85 | 1016.3 |
| 20260503042543 | 2 | 266 | 0.0 | 0.0 | 0.00 | 0.00 | 0.00 | 84 | 1015.9 |
| 20260503042039 | 2 | 266 | 0.0 | 0.0 | 0.00 | 0.00 | 0.00 | 83 | 1016.2 |
| 20260503041536 | 3 | 266 | 0.0 | 0.0 | 0.00 | 0.00 | 0.00 | 81 | 1016.0 |
| 20260503041034 | 2 | 266 | 0.0 | 0.0 | 0.00 | 0.00 | 0.00 | 76 | 1016.4 |
| 20260503040531 | 3 | 266 | 0.0 | 0.0 | 0.00 | 0.00 | 0.00 | 70 | 1016.3 |
| 20260503040028 | 3 | 266 | 0.0 | 0.0 | 0.00 | 0.00 | 0.00 | 70 | 1016.3 |
| 20260503035525 | 3 | 266 | 0.0 | 3.2 | 0.00 | 0.00 | 0.00 | 68 | 1016.0 |
| 20260503035022 | 3 | 266 | 3.2 | 3.2 | 0.00 | 0.00 | 0.00 | 69 | 1016.3 |
| 20260503034520 | 3 | 266 | 3.2 | 3.2 | 0.00 | 0.00 | 0.00 | 74 | 1016.2 |
| 20260503034016 | 3 | 265 | 0.0 | 3.2 | 0.00 | 0.00 | 0.00 | 77 | 1016.3 |
| 20260503033514 | 3 | 265 | 0.0 | 0.0 | 0.00 | 0.00 | 0.00 | 75 | 1016.3 |
| 20260503033012 | 3 | 265 | 0.0 | 0.0 | 0.00 | 0.00 | 0.00 | 75 | 1016.4 |
| 20260503032510 | 3 | 265 | 0.0 | 0.0 | 0.00 | 0.00 | 0.00 | 75 | 1016.3 |
| 20260503032008 | 3 | 266 | 0.0 | 6.4 | 0.00 | 0.00 | 0.00 | 74 | 1016.2 |
| 20260503031505 | 3 | 265 | 0.0 | 0.0 | 0.00 | 0.00 | 0.00 | 75 | 1016.2 |
| 20260503031002 | 3 | 265 | 0.0 | 3.2 | 0.00 | 0.00 | 0.00 | 73 | 1016.3 |
| 20260503030458 | 3 | 265 | 0.0 | 0.0 | 0.00 | 0.00 | 0.00 | 74 | 1016.1 |
| 20260503025955 | 3 | 265 | 3.2 | 3.2 | 0.00 | 0.00 | 0.00 | 76 | 1016.4 |
| 20260503025452 | 3 | 265 | 0.0 | 0.0 | 0.00 | 0.00 | 0.00 | 74 | 1016.4 |
| 20260503024949 | 3 | 265 | 0.0 | 0.0 | 0.00 | 0.00 | 0.00 | 73 | 1016.5 |
| 20260503024445 | 3 | 265 | 0.0 | 0.0 | 0.00 | 0.00 | 0.00 | 72 | 1016.5 |
| 20260503023943 | 3 | 265 | 0.0 | 0.0 | 0.00 | 0.00 | 0.00 | 73 | 1016.3 |
| 20260503023440 | 3 | 265 | 0.0 | 0.0 | 0.00 | 0.00 | 0.00 | 73 | 1016.5 |
| 20260503022937 | 4 | 265 | 0.0 | 3.2 | 0.00 | 0.00 | 0.00 | 72 | 1016.5 |
| 20260503022432 | 4 | 265 | 0.0 | 3.2 | 0.00 | 0.00 | 0.00 | 73 | 1016.3 |
| 20260503021928 | 5 | 265 | 0.0 | 3.2 | 0.00 | 0.00 | 0.00 | 69 | 1016.4 |
| 20260503021424 | 4 | 265 | 3.2 | 3.2 | 0.00 | 0.00 | 0.00 | 67 | 1016.4 |
| 20260503020922 | 4 | 264 | 0.0 | 3.2 | 0.00 | 0.00 | 0.00 | 69 | 1016.3 |
| 20260503020419 | 5 | 264 | 0.0 | 3.2 | 0.00 | 0.00 | 0.00 | 70 | 1016.5 |
| 20260503015915 | 5 | 264 | 1.6 | 6.4 | 0.00 | 0.00 | 0.00 | 70 | 1016.3 |
| 20260503015413 | 5 | 263 | 0.0 | 0.0 | 0.00 | 0.00 | 0.00 | 69 | 1016.3 |
| 20260503014908 | 5 | 263 | 0.0 | 0.0 | 0.00 | 0.00 | 0.00 | 70 | 1016.3 |
| 20260503014406 | 5 | 263 | 0.0 | 0.0 | 0.00 | 0.00 | 0.00 | 69 | 1016.2 |
| 20260503013904 | 5 | 263 | 0.0 | 0.0 | 0.00 | 0.00 | 0.00 | 65 | 1016.2 |
| 20260503013400 | 5 | 263 | 0.0 | 3.2 | 0.00 | 0.00 | 0.00 | 61 | 1016.0 |
| 20260503012857 | 5 | 261 | 0.0 | 0.0 | 0.00 | 0.00 | 0.00 | 59 | 1016.0 |
| 20260503012355 | 6 | 262 | 0.0 | 0.0 | 0.00 | 0.00 | 0.00 | 58 | 1016.3 |
| 20260503011852 | 6 | 260 | 0.0 | 6.4 | 0.00 | 0.00 | 0.00 | 57 | 1016.2 |
| 20260503011349 | 6 | 259 | 0.0 | 3.2 | 0.00 | 0.00 | 0.00 | 57 | 1016.2 |
| 20260503010845 | 6 | 258 | 0.0 | 0.0 | 0.00 | 0.00 | 0.00 | 55 | 1016.2 |
| 20260503010342 | 6 | 260 | 0.0 | 3.2 | 0.00 | 0.00 | 0.00 | 56 | 1016.2 |
| 20260503005839 | 6 | 257 | 0.0 | 0.0 | 0.00 | 0.00 | 0.00 | 55 | 1016.0 |
| 20260503005337 | 7 | 260 | 0.0 | 0.0 | 0.00 | 0.00 | 0.00 | 53 | 1016.2 |
| 20260503004832 | 7 | 260 | 0.0 | 6.4 | 0.00 | 0.00 | 0.00 | 53 | 1016.1 |
| 20260503004330 | 7 | 259 | 1.6 | 8.0 | 0.00 | 0.00 | 0.00 | 51 | 1016.0 |
| 20260503003828 | 7 | 271 | 4.8 | 8.0 | 0.00 | 0.00 | 0.00 | 52 | 1016.0 |
| 20260503003324 | 7 | 246 | 1.6 | 3.2 | 0.00 | 0.00 | 0.00 | 51 | 1016.1 |
| 20260503002821 | 7 | 286 | 4.8 | 6.4 | 0.00 | 0.00 | 0.00 | 51 | 1015.9 |
| 20260503002318 | 7 | 287 | 4.8 | 8.0 | 0.00 | 0.00 | 0.00 | 51 | 1015.9 |
| 20260503001815 | 8 | 262 | 4.8 | 11.3 | 0.00 | 0.00 | 0.00 | 51 | 1015.9 |
| 20260503001311 | 8 | 264 | 3.2 | 6.4 | 0.00 | 0.00 | 0.00 | 51 | 1015.8 |
| 20260503000809 | 8 | 302 | 6.4 | 11.3 | 0.00 | 0.00 | 0.00 | 51 | 1015.7 |
| 20260503000306 | 8 | 315 | 3.2 | 8.0 | 0.00 | 0.00 | 0.00 | 52 | 1015.9 |
| 20260502235803 | 8 | 243 | 0.0 | 8.0 | 0.00 | 0.00 | 0.00 | 50 | 1015.7 |
| 20260502235300 | 8 | 294 | 1.6 | 14.5 | 0.00 | 0.00 | 0.00 | 50 | 1015.8 |
| 20260502234757 | 8 | 281 | 6.4 | 8.0 | 0.00 | 0.00 | 0.00 | 50 | 1015.8 |
| 20260502234254 | 8 | 266 | 6.4 | 8.0 | 0.00 | 0.00 | 0.00 | 49 | 1015.9 |
| 20260502233750 | 8 | 270 | 3.2 | 20.9 | 0.00 | 0.00 | 0.00 | 49 | 1015.6 |
| 20260502233247 | 8 | 266 | 9.7 | 14.5 | 0.00 | 0.00 | 0.00 | 49 | 1015.6 |
| 20260502232743 | 8 | 298 | 6.4 | 8.0 | 0.00 | 0.00 | 0.00 | 49 | 1015.7 |
| 20260502232240 | 9 | 335 | 3.2 | 8.0 | 0.00 | 0.00 | 0.00 | 50 | 1015.9 |
| 20260502231736 | 10 | 263 | 17.7 | 24.1 | 0.00 | 0.00 | 0.00 | 46 | 1015.7 |
| 20260502231234 | 10 | 304 | 6.4 | 8.0 | 0.00 | 0.00 | 0.00 | 48 | 1015.8 |
| 20260502230733 | 10 | 237 | 3.2 | 6.4 | 0.00 | 0.00 | 0.00 | 49 | 1015.8 |
| 20260502230231 | 9 | 265 | 3.2 | 6.4 | 0.00 | 0.00 | 0.00 | 51 | 1015.8 |
| 20260502225727 | 9 | 259 | 3.2 | 20.9 | 0.00 | 0.00 | 0.00 | 51 | 1015.8 |
| 20260502225224 | 10 | 251 | 4.8 | 8.0 | 0.00 | 0.00 | 0.00 | 51 | 1015.7 |
| 20260502224720 | 10 | 359 | 8.0 | 17.7 | 0.00 | 0.00 | 0.00 | 51 | 1016.0 |
| 20260502224217 | 10 | 324 | 3.2 | 8.0 | 0.00 | 0.00 | 0.00 | 47 | 1015.8 |
| 20260502223714 | 10 | 317 | 0.0 | 3.2 | 0.00 | 0.00 | 0.00 | 49 | 1015.9 |
| 20260502223212 | 10 | 343 | 3.2 | 14.5 | 0.00 | 0.00 | 0.00 | 51 | 1015.8 |
| 20260502222710 | 10 | 241 | 12.9 | 17.7 | 0.00 | 0.00 | 0.00 | 48 | 1015.8 |
| 20260502222206 | 10 | 356 | 9.7 | 17.7 | 0.00 | 0.00 | 0.00 | 47 | 1016.0 |
| 20260502221702 | 10 | 296 | 3.2 | 6.4 | 0.00 | 0.00 | 0.00 | 48 | 1016.0 |
| 20260502221159 | 10 | 323 | 4.8 | 11.3 | 0.00 | 0.00 | 0.00 | 48 | 1016.2 |
| 20260502220655 | 9 | 339 | 8.0 | 11.3 | 0.00 | 0.00 | 0.00 | 50 | 1015.9 |
| 20260502220152 | 10 | 0 | 8.0 | 17.7 | 0.00 | 0.00 | 0.00 | 55 | 1015.9 |
| 20260502215649 | 10 | 351 | 8.0 | 11.3 | 0.00 | 0.00 | 0.00 | 51 | 1015.9 |
| 20260502215145 | 10 | 284 | 3.2 | 6.4 | 0.00 | 0.00 | 0.00 | 51 | 1015.9 |
| 20260502214642 | 9 | 218 | 0.0 | 3.2 | 0.00 | 0.00 | 0.00 | 54 | 1016.1 |
| 20260502214134 | 9 | 263 | 6.4 | 8.0 | 0.00 | 0.00 | 0.00 | 52 | 1016.2 |
| 20260502213631 | 10 | 261 | 0.0 | 3.2 | 0.00 | 0.00 | 0.00 | 51 | 1016.2 |
| 20260502213128 | 9 | 347 | 3.2 | 11.3 | 0.00 | 0.00 | 0.00 | 59 | 1015.9 |
| 20260502212627 | 8 | 328 | 8.0 | 14.5 | 0.00 | 0.00 | 0.00 | 57 | 1016.0 |
| 20260502212125 | 9 | 338 | 1.6 | 8.0 | 0.00 | 0.00 | 0.00 | 57 | 1015.9 |
| 20260502211620 | 9 | 349 | 4.8 | 6.4 | 0.00 | 0.00 | 0.00 | 53 | 1016.2 |
| 20260502211117 | 9 | 348 | 3.2 | 6.4 | 0.00 | 0.00 | 0.00 | 55 | 1016.2 |
| 20260502210615 | 8 | 359 | 8.0 | 14.5 | 0.00 | 0.00 | 0.00 | 52 | 1016.2 |
| 20260502210112 | 9 | 290 | 8.0 | 11.3 | 0.00 | 0.00 | 0.00 | 52 | 1016.1 |
| 20260502205608 | 10 | 306 | 4.8 | 6.4 | 0.00 | 0.00 | 0.00 | 52 | 1016.2 |
| 20260502205106 | 9 | 244 | 3.2 | 14.5 | 0.00 | 0.00 | 0.00 | 52 | 1016.3 |
| 20260502204602 | 8 | 309 | 6.4 | 8.0 | 0.00 | 0.00 | 0.00 | 55 | 1016.2 |
| 20260502204100 | 8 | 342 | 6.4 | 11.3 | 0.00 | 0.00 | 0.00 | 52 | 1016.3 |
| 20260502203556 | 8 | 315 | 6.4 | 8.0 | 0.00 | 0.00 | 0.00 | 54 | 1016.3 |
| 20260502203054 | 9 | 351 | 11.3 | 14.5 | 0.00 | 0.00 | 0.00 | 50 | 1016.3 |
| 20260502202549 | 9 | 309 | 12.9 | 17.7 | 0.00 | 0.00 | 0.00 | 54 | 1016.5 |
| 20260502202048 | 8 | 344 | 4.8 | 11.3 | 0.00 | 0.00 | 0.00 | 53 | 1016.2 |
| 20260502201544 | 8 | 315 | 3.2 | 8.0 | 0.00 | 0.00 | 0.00 | 51 | 1016.5 |
| 20260502201040 | 8 | 227 | 6.4 | 14.5 | 0.00 | 0.00 | 0.00 | 51 | 1016.6 |
| 20260502200536 | 8 | 335 | 6.4 | 8.0 | 0.00 | 0.00 | 0.00 | 52 | 1016.5 |
| 20260502200034 | 8 | 299 | 4.8 | 8.0 | 0.00 | 0.00 | 0.00 | 51 | 1016.6 |
| 20260502195532 | 8 | 325 | 3.2 | 11.3 | 0.00 | 0.00 | 0.00 | 52 | 1016.7 |
| 20260502195027 | 8 | 342 | 11.3 | 14.5 | 0.00 | 0.00 | 0.00 | 56 | 1016.9 |
| 20260502194524 | 9 | 335 | 8.0 | 11.3 | 0.00 | 0.00 | 0.00 | 51 | 1016.7 |
| 20260502194020 | 8 | 265 | 8.0 | 8.0 | 0.00 | 0.00 | 0.00 | 51 | 1016.8 |
| 20260502193518 | 8 | 290 | 8.0 | 11.3 | 0.00 | 0.00 | 0.00 | 50 | 1016.9 |
| 20260502193015 | 8 | 323 | 1.6 | 3.2 | 0.00 | 0.00 | 0.00 | 52 | 1016.8 |
| 20260502192510 | 8 | 347 | 4.8 | 6.4 | 0.00 | 0.00 | 0.00 | 52 | 1016.8 |
| 20260502192008 | 8 | 5 | 14.5 | 17.7 | 0.00 | 0.00 | 0.00 | 55 | 1017.1 |
| 20260502191505 | 8 | 256 | 11.3 | 17.7 | 0.00 | 0.00 | 0.00 | 50 | 1017.1 |
| 20260502191003 | 8 | 342 | 4.8 | 8.0 | 0.00 | 0.00 | 0.00 | 51 | 1017.2 |
| 20260502190459 | 8 | 258 | 8.0 | 14.5 | 0.00 | 0.00 | 0.00 | 53 | 1017.3 |
| 20260502185956 | 8 | 349 | 3.2 | 20.9 | 0.00 | 0.00 | 0.00 | 55 | 1017.2 |
| 20260502185452 | 8 | 295 | 0.0 | 8.0 | 0.00 | 0.00 | 0.00 | 54 | 1017.2 |
| 20260502184949 | 8 | 355 | 6.4 | 20.9 | 0.00 | 0.00 | 0.00 | 53 | 1017.4 |
| 20260502184444 | 8 | 243 | 3.2 | 11.3 | 0.00 | 0.00 | 0.00 | 52 | 1017.3 |
| 20260502183941 | 8 | 333 | 1.6 | 11.3 | 0.00 | 0.00 | 0.00 | 57 | 1017.6 |
| 20260502183437 | 8 | 247 | 6.4 | 8.0 | 0.00 | 0.00 | 0.00 | 54 | 1017.4 |
| 20260502182932 | 8 | 241 | 8.0 | 11.3 | 0.00 | 0.00 | 0.00 | 55 | 1017.5 |
| 20260502182428 | 8 | 307 | 3.2 | 6.4 | 0.00 | 0.00 | 0.00 | 56 | 1017.4 |
| 20260502181924 | 7 | 256 | 0.0 | 3.2 | 0.00 | 0.00 | 0.00 | 56 | 1017.5 |
| 20260502181423 | 7 | 1 | 4.8 | 8.0 | 0.00 | 0.00 | 0.00 | 52 | 1017.6 |
| 20260502180921 | 7 | 1 | 4.8 | 8.0 | 0.00 | 0.00 | 0.00 | 52 | 1017.5 |
| 20260502180418 | 7 | 1 | 4.8 | 8.0 | 0.00 | 0.00 | 0.00 | 52 | 1017.4 |
| 20260502170336 | 7 | 330 | 4.8 | 6.4 | 0.00 | 0.00 | 0.00 | 58 | 1018.2 |
| 20260502164324 | 7 | 340 | 9.7 | 14.5 | 0.00 | 0.00 | 0.00 | 60 | 1018.2 |
| 20260502163820 | 7 | 340 | 9.7 | 14.5 | 0.00 | 0.00 | 0.00 | 60 | 1018.1 |
| 20260502163316 | 7 | 331 | 4.8 | 8.0 | 0.00 | 0.00 | 0.00 | 56 | 1018.2 |
| 20260502162814 | 7 | 331 | 4.8 | 8.0 | 0.00 | 0.00 | 0.00 | 56 | 1018.2 |
| 20260502162310 | 7 | 326 | 0.0 | 3.2 | 0.00 | 0.00 | 0.00 | 54 | 1018.2 |
| 20260502161808 | 6 | 355 | 4.8 | 8.0 | 0.00 | 0.00 | 0.00 | 66 | 1018.3 |
| 20260502161303 | 6 | 355 | 4.8 | 8.0 | 0.00 | 0.00 | 0.00 | 66 | 1018.3 |
| 20260502160801 | 6 | 355 | 4.8 | 8.0 | 0.00 | 0.00 | 0.00 | 66 | 1018.1 |
| 20260502160300 | 6 | 355 | 4.8 | 8.0 | 0.00 | 0.00 | 0.00 | 66 | 1018.2 |
| 20260502152229 | 7 | 359 | 17.7 | 24.1 | 0.00 | 0.00 | 0.00 | 64 | 1018.2 |
| 20260502151727 | 6 | 25 | 3.2 | 3.2 | 0.00 | 0.00 | 0.00 | 65 | 1018.2 |
| 20260502151224 | 7 | 39 | 6.4 | 11.3 | 0.00 | 0.00 | 0.00 | 63 | 1018.2 |
| 20260502150721 | 7 | 39 | 6.4 | 14.5 | 0.00 | 0.00 | 0.00 | 63 | 1018.1 |
| 20260502150218 | 6 | 359 | 14.5 | 17.7 | 0.00 | 0.00 | 0.00 | 69 | 1017.9 |
| 20260502130606 | 4 | 9 | 12.9 | 17.7 | 0.00 | 0.00 | 0.00 | 82 | 1017.9 |
| 20260502130104 | 4 | 7 | 12.9 | 24.1 | 0.00 | 0.00 | 0.00 | 81 | 1018.0 |
| 20260502123549 | 3 | 349 | 11.3 | 14.5 | 0.00 | 0.00 | 0.00 | 81 | 1018.0 |
| 20260502123046 | 3 | 334 | 3.2 | 11.3 | 0.00 | 0.00 | 0.00 | 83 | 1018.0 |
| 20260502122542 | 3 | 346 | 11.3 | 14.5 | 0.00 | 0.00 | 0.00 | 84 | 1017.8 |
| 20260502122040 | 3 | 8 | 8.0 | 11.3 | 0.00 | 0.00 | 0.00 | 82 | 1018.1 |
| 20260502121537 | 2 | 333 | 4.8 | 11.3 | 0.00 | 0.00 | 0.00 | 83 | 1018.1 |
| 20260502121035 | 2 | 335 | 6.4 | 11.3 | 0.00 | 0.00 | 0.00 | 85 | 1017.8 |
| 20260502120531 | 2 | 341 | 6.4 | 11.3 | 0.00 | 0.00 | 0.00 | 85 | 1017.6 |
| 20260502115526 | 2 | 326 | 1.6 | 11.3 | 0.00 | 0.00 | 0.00 | 83 | 1017.8 |
| 20260502115021 | 2 | 329 | 6.4 | 11.3 | 0.00 | 0.00 | 0.00 | 83 | 1017.9 |
| 20260502114518 | 2 | 324 | 0.0 | 6.4 | 0.00 | 0.00 | 0.00 | 84 | 1017.6 |
| 20260502114015 | 2 | 329 | 3.2 | 6.4 | 0.00 | 0.00 | 0.00 | 84 | 1017.4 |
| 20260502113513 | 1 | 337 | 9.7 | 11.3 | 0.00 | 0.00 | 0.00 | 85 | 1017.6 |
| 20260502113011 | 2 | 308 | 3.2 | 6.4 | 0.00 | 0.00 | 0.00 | 84 | 1017.6 |
| 20260502112509 | 1 | 300 | 0.0 | 3.2 | 0.00 | 0.00 | 0.00 | 85 | 1017.4 |
| 20260502112006 | 1 | 304 | 3.2 | 6.4 | 0.00 | 0.00 | 0.00 | 86 | 1017.4 |
| 20260502111503 | 1 | 307 | 0.0 | 8.0 | 0.00 | 0.00 | 0.00 | 87 | 1017.2 |
| 20260502111000 | 1 | 291 | 0.0 | 8.0 | 0.00 | 0.00 | 0.00 | 88 | 1017.2 |
| 20260502110458 | 1 | 297 | 0.0 | 6.4 | 0.00 | 0.00 | 0.00 | 89 | 1017.3 |
| 20260502105955 | 0 | 292 | 0.0 | 6.4 | 0.00 | 0.00 | 0.00 | 90 | 1017.4 |
| 20260502105453 | 0 | 274 | 0.0 | 6.4 | 0.00 | 0.00 | 0.00 | 91 | 1017.3 |
| 20260502104950 | 0 | 245 | 1.6 | 3.2 | 0.00 | 0.00 | 0.00 | 91 | 1017.2 |
| 20260502104447 | 0 | 249 | 0.0 | 3.2 | 0.00 | 0.00 | 0.00 | 91 | 1017.0 |
| 20260502103944 | 0 | 281 | 1.6 | 6.4 | 0.00 | 0.00 | 0.00 | 91 | 1017.0 |
| 20260502103442 | 0 | 293 | 0.0 | 6.4 | 0.00 | 0.00 | 0.00 | 91 | 1017.2 |
| 20260502102938 | 0 | 279 | 0.0 | 3.2 | 0.00 | 0.00 | 0.00 | 91 | 1017.1 |
| 20260502102436 | 0 | 245 | 1.6 | 6.4 | 0.00 | 0.00 | 0.00 | 91 | 1016.9 |
| 20260502101932 | 0 | 291 | 1.6 | 3.2 | 0.00 | 0.00 | 0.00 | 91 | 1016.9 |
| 20260502101431 | 0 | 286 | 0.0 | 3.2 | 0.00 | 0.00 | 0.00 | 91 | 1016.9 |
| 20260502100929 | 0 | 251 | 1.6 | 3.2 | 0.00 | 0.00 | 0.00 | 91 | 1017.0 |
| 20260502100428 | 0 | 271 | 0.0 | 6.4 | 0.00 | 0.00 | 0.00 | 91 | 1017.0 |
| 20260502091402 | 0 | 245 | 3.2 | 6.4 | 0.00 | 0.00 | 0.00 | 92 | 1016.8 |
| 20260502090859 | 0 | 256 | 0.0 | 6.4 | 0.00 | 0.00 | 0.00 | 92 | 1016.7 |
| 20260502090356 | 0 | 276 | 1.6 | 6.4 | 0.00 | 0.00 | 0.00 | 92 | 1016.8 |
| 20260502071251 | 0 | 276 | 0.0 | 3.2 | 0.00 | 0.00 | 0.00 | 86 | 1016.7 |
| 20260502070749 | 0 | 287 | 3.2 | 6.4 | 0.00 | 0.00 | 0.00 | 86 | 1016.7 |
| 20260502070246 | 1 | 258 | 3.2 | 6.4 | 0.00 | 0.00 | 0.00 | 85 | 1016.4 |
| 20260502065745 | 1 | 255 | 1.6 | 3.2 | 0.00 | 0.00 | 0.00 | 85 | 1017.1 |
| 20260502065243 | 1 | 270 | 1.6 | 3.2 | 0.00 | 0.00 | 0.00 | 85 | 1016.4 |
| 20260502064741 | 1 | 244 | 0.0 | 6.4 | 0.00 | 0.00 | 0.00 | 85 | 1016.4 |
| 20260502064238 | 1 | 292 | 3.2 | 6.4 | 0.00 | 0.00 | 0.00 | 85 | 1016.8 |
| 20260502063735 | 1 | 294 | 0.0 | 6.4 | 0.00 | 0.00 | 0.00 | 84 | 1016.8 |